Regional Weather Roundup
Issued by NWS

Home | Current Version | Previous Version | Text Only | Print | Product List | Glossary On
Versions: 1 2 3 4 5 6 7 8 9 10 11 12 13 14 15 16 17 18 19 20 21 22 23 24 25 26 27 28 29 30 31 32 33 34 35 36 37 38 39 40 41 42 43 44 45 46 47 48 49 50
000
ASUS43 KMPX 222301
RWRMN
WEATHER ROUNDUP FOR MINNESOTA
NATIONAL WEATHER SERVICE TWIN CITIES/CHANHASSEN MN
600 PM CDT SUN OCT 22 2017


NOTE: "FAIR" INDICATES FEW OR NO CLOUDS BELOW 12,000 FEET WITH NO
SIGNIFICANT WEATHER AND/OR OBSTRUCTIONS TO VISIBILITY. N/A MEANS
CURRENT SKY AND/OR WEATHER CONDITIONS ARE NOT AVAILABLE.

MNZ060>063-068>070-230000-
   Twin Cities Metro

CITY           SKY/WX    TMP DP  RH WIND       PRES   REMARKS
TWIN CITIES    PTCLDY    62  32  32 SW5       29.93F
ST PAUL        CLEAR     60  31  33 S3        29.94S
CRYSTAL        CLEAR     59  29  31 S6        29.91F
BLAINE         CLEAR     63  30  29 SW6       29.92F
LAKEVILLE      CLEAR     57  36  44 CALM      29.94S
EDEN PRAIRIE   CLEAR     60  31  33 S7        29.92F
SOUTH ST PAUL  CLEAR     60  31  32 S3        29.93F
LAKE ELMO      FAIR      59  32  36 NW5       29.94S
$$
MNZ001>005-007-008-013>017-022>024-027-028-230000-
   Northwest Minnesota

CITY           SKY/WX    TMP DP  RH WIND       PRES   REMARKS
BEMIDJI        CLOUDY    58  27  30 SW9       29.76F
HALLOCK        CLOUDY    57  30  35 SW17G26   29.64S
ROSEAU         CLOUDY    61  28  29 SW13G22   29.66S
WARROAD        MOCLDY    59  30  33 SW13G23   29.66F
CROOKSTON      PTCLDY    61  28  29 SW21G26   29.69F
FOSSTON        PTCLDY    57  25  28 SW17      29.75S
DETROIT LAKES  CLOUDY    57  30  35 S10       29.78F
MOORHEAD       CLOUDY    61  28  29 S10G22    29.76S
PARK RAPIDS    CLOUDY    56  32  40 S8        29.79F
MAHNOMEN       MOCLDY    57  30  35 SW9       29.75S
$$
MNZ006-009>011-018-025>026-230000-
   North Central Minnesota

CITY           SKY/WX    TMP DP  RH WIND       PRES   REMARKS
BAUDETTE       PTCLDY    57  28  33 S10       29.69F
FLAG ISLAND    PTCLDY    55  32  41 SW17      29.63F
INTL FALLS     CLEAR     51  30  44 SW6       29.74F
WASKISH        CLOUDY    57  30  35 S8        29.73F
BIG FORK       CLEAR     54  28  37 SW8       29.79S
LONGVILLE      CLEAR     57  30  35 S6        29.81F
GRAND RAPIDS   CLEAR     56  28  34 SW7       29.84S
CRANE LAKE     CLEAR     52  28  40 CALM      29.80S
ORR            CLEAR     54  25  32 S6        29.77S
COOK           CLEAR     54  30  40 SW5       29.81S
WALKER         FAIR      57  28  33 SW12      29.78F
$$
MNZ012-019>021-037-230000-
   Northeast Minnesota

CITY           SKY/WX    TMP DP  RH WIND       PRES   REMARKS
DULUTH         PTCLDY    53  30  41 W9        29.86R
ELY            CLEAR     54  27  35 SW7       29.83R
HIBBING        CLEAR     53  28  38 SW3       29.82F
EVELETH        CLEAR     53  12  19 SW7       29.85R
DULUTH HARBOR  CLEAR     59  36  41 SW9       29.87S
TWO HARBORS    CLEAR     57  36  44 SW8       29.84S
SILVER BAY     CLEAR     55  30  38 CALM      29.84R
G MARAIS ARPRT CLEAR     45  36  70 S3        29.85R
$$
MNZ029>031-032-039>041-046>048-054>057-064-230000-
   West Central Minnesota

CITY           SKY/WX    TMP DP  RH WIND       PRES   REMARKS
FERGUS FALLS   CLOUDY    59  32  36 S9        29.80S
WHEATON        CLOUDY    63  27  25 S7        29.81F
MORRIS         MOCLDY    59  36  41 SW7       29.82S
ALEXANDRIA     PTCLDY    58  33  39 S8        29.84F
ELBOW LAKE     FAIR      57  32  38 SW8       29.82S
WADENA         PTCLDY    55  34  44 S6        29.80F
GLENWOOD       PTCLDY    57  36  44 S8        29.85F
APPLETON       PTCLDY    64  27  24 SW7       29.83F
BENSON         MOCLDY    63  27  25 SW9       29.85F
ORTONVILLE     PTCLDY    63  30  29 N6        29.82F
MADISON        CLEAR     64  28  25 SW9       29.84F
WILLMAR        FAIR      63  34  34 S3        29.88F
$$
MNZ033>034-036-042>043-049>051-058-059-230000-
   Central Minnesota

CITY           SKY/WX    TMP DP  RH WIND       PRES   REMARKS
ST CLOUD       CLEAR     55  36  48 S7        29.88F
SAUK CENTRE    FAIR      55  37  50 S8        29.85F
PAYNESVILLE    CLOUDY    60  32  34 S7        29.88F
AITKIN         CLEAR     54  28  37 S6        29.84S
PINE RIVER     CLEAR     54  30  40 S6        29.86S
BRAINERD       CLEAR     57  31  37 S8        29.85F
STAPLES        PTCLDY    54  30  40 S6        29.82F
LONG PRAIRIE   FAIR      54  34  47 SE6       29.85F
LITTLE FALLS   PTCLDY    55  23  28 S3        29.86F
LITCHFIELD     PTCLDY    57  36  44 CALM      29.90S
BUFFALO        CLEAR     59  29  33 S3        29.91F
MAPLE LAKE     CLEAR     58  34  39 CALM      29.91F
HUTCHINSON     CLOUDY    58  36  43 S3        29.92S
$$
MNZ037-044-045-052-053-230000-
   East Central Minnesota

CITY           SKY/WX    TMP DP  RH WIND       PRES   REMARKS
PRINCETON      CLEAR     57  32  38 S5        29.90S
MORA           CLEAR     55  30  38 SW5       29.91S
CAMBRIDGE      CLEAR     61  37  41 S5        29.91S
RUSH CITY      PTCLDY    57  29  34 SW3       29.91S
MOOSE LAKE     CLEAR     55  32  41 SW6       29.86S
HINCKLEY       FAIR      54  32  43 SW7       29.90S
CLOQUET        CLEAR     55  25  30 SW5       29.87R
MCGREGOR       CLEAR     55  30  38 S6        29.86S
$$
MNZ071>073-080-081-089-090-097-098-230000-
   Southwest Minnesota

CITY           SKY/WX    TMP DP  RH WIND       PRES   REMARKS
MONTEVIDEO     MOCLDY    63  28  27 SW8       29.85F
GRANITE FALLS  MOCLDY    62  33  34 S12       29.89F
CANBY          CLEAR     64  29  26 SW13G20   29.86F
MARSHALL       PTCLDY    63  31  30 S13       29.87F
REDWOOD FALLS  CLEAR     62  31  31 S10       29.90S
OLIVIA         PTCLDY    61  32  33 S9        29.89S
PIPESTONE      CLEAR     61  28  29 SW9       29.89F
WORTHINGTON    CLEAR     61  31  32 S9        29.93F
JACKSON        CLEAR     61  30  31 S9        29.96S
TRACY          PTCLDY    64  32  30 S9G18     29.90S
SLAYTON        CLEAR     61  30  31 S8        29.92S
$$
MNZ065>067-074>077-082>085-091>093-230000-
   South Central Minnesota

CITY           SKY/WX    TMP DP  RH WIND       PRES   REMARKS
MANKATO        CLEAR     61  31  32 S7        29.95S
NEW ULM        CLEAR     59  30  33 S7        29.92S
ST JAMES       CLEAR     61  32  33 S8        29.95S
FAIRMONT       CLEAR     58  39  49 S8        29.96S
GLENCOE        CLEAR     61  31  32 S3        29.91F
FARIBAULT      CLEAR     61  32  33 S3        29.96S
OWATONNA       CLEAR     57  39  51 S5        29.96F
WASECA         CLEAR     59  32  36 S5        29.97S
$$
MNZ078>079-086>088-094>096-230000-
   Southeast Minnesota

CITY           SKY/WX    TMP DP  RH WIND       PRES   REMARKS
ROCHESTER      CLOUDY    55  39  54 SW6       29.99F
RED WING       CLEAR     61  28  29 W3        29.95R
STANTON        CLEAR     59  33  36 CALM      29.94S
DODGE CENTER   CLEAR     57  30  35 SW3       29.98S
WINONA         CLOUDY    54  43  66 SE6       29.99S
AUSTIN         CLEAR     59  28  31 SW3       29.98F
PRESTON        PTCLDY    57  33  39 W5        30.00S
$$
ABBREVIATIONS USED IN REMARKS
   TC - TEMPERATURES IN CELSIUS
  WCI - WIND CHILL INDEX
   HX - HEAT INDEX
  VSB - VISIBILITY
$$




USA.gov is the U.S. government's official web portal to all federal, state and local government web resources and services.